Time,TemperatureF,DewpointF,PressureIn,WindDirection,WindDirectionDegrees,WindSpeedMPH,WindSpeedGustMPH,Humidity,HourlyPrecipIn,Conditions,Clouds,dailyrainin,SoftwareType,DateUTC
2013-09-10 00:00:00,83.5,73.9,29.70,North,360,3.0,13.0,73,0.00,,CLR,0.03,VWS V14.01,2013-09-10 05:00:00,
2013-09-10 00:04:00,83.5,73.5,29.70,North,360,7.0,16.0,72,0.00,,FEW250,0.00,VWS V14.01,2013-09-10 05:04:00,
2013-09-10 00:05:00,83.5,73.5,29.70,North,360,5.0,16.0,72,0.00,,CLR,0.00,VWS V14.01,2013-09-10 05:05:00,
2013-09-10 00:10:00,83.4,73.4,29.70,North,360,6.0,12.0,72,0.00,,FEW250,0.00,VWS V14.01,2013-09-10 05:10:00,
2013-09-10 00:15:00,83.4,73.4,29.70,SW,217,13.0,16.0,72,0.00,,FEW250,0.00,VWS V14.01,2013-09-10 05:15:00,
2013-09-10 00:20:00,83.4,73.4,29.70,North,360,13.0,17.0,72,0.00,,FEW250,0.00,VWS V14.01,2013-09-10 05:20:00,
2013-09-10 00:25:00,83.4,73.4,29.70,SSW,211,5.0,15.0,72,0.00,,FEW250,0.00,VWS V14.01,2013-09-10 05:25:00,
2013-09-10 00:30:00,83.2,73.2,29.71,SSE,161,8.0,13.0,72,0.00,,FEW250,0.00,VWS V14.01,2013-09-10 05:30:00,
2013-09-10 00:35:00,83.0,73.1,29.71,North,360,5.0,14.0,72,0.00,,FEW250,0.00,VWS V14.01,2013-09-10 05:35:00,
2013-09-10 00:40:00,83.0,73.1,29.71,SSW,197,0.0,15.0,72,0.00,,FEW250,0.00,VWS V14.01,2013-09-10 05:40:00,
2013-09-10 00:45:00,82.8,72.9,29.71,North,360,12.0,14.0,72,0.00,,FEW250,0.00,VWS V14.01,2013-09-10 05:45:00,
2013-09-10 00:50:00,82.7,72.8,29.71,North,360,4.0,15.0,72,0.00,,FEW250,0.00,VWS V14.01,2013-09-10 05:50:00,
2013-09-10 00:55:00,82.6,72.7,29.71,North,360,8.0,16.0,72,0.00,,FEW250,0.00,VWS V14.01,2013-09-10 05:55:00,
2013-09-10 01:00:00,82.5,72.6,29.71,SSW,213,3.0,16.0,72,0.00,,SCT250,0.00,VWS V14.01,2013-09-10 06:00:00,
2013-09-10 01:05:00,82.3,72.4,29.72,WSW,246,1.0,16.0,72,0.00,,SCT250,0.00,VWS V14.01,2013-09-10 06:05:00,
2013-09-10 01:10:00,82.3,72.4,29.71,North,360,6.0,16.0,72,0.00,,SCT250,0.00,VWS V14.01,2013-09-10 06:10:00,
2013-09-10 01:15:00,82.2,72.3,29.71,SW,220,12.0,19.0,72,0.00,,SCT250,0.00,VWS V14.01,2013-09-10 06:15:00,
2013-09-10 01:20:00,82.3,72.4,29.72,South,177,8.0,16.0,72,0.00,,SCT250,0.00,VWS V14.01,2013-09-10 06:20:00,
2013-09-10 01:25:00,82.3,72.0,29.72,SW,221,11.0,17.0,71,0.00,,SCT250,0.00,VWS V14.01,2013-09-10 06:25:00,
2013-09-10 01:30:00,82.4,71.6,29.72,North,360,0.0,17.0,70,0.00,,SCT250,0.00,VWS V14.01,2013-09-10 06:30:00,
2013-09-10 01:35:00,82.5,71.7,29.72,North,360,10.0,18.0,70,0.00,,SCT250,0.00,VWS V14.01,2013-09-10 06:35:00,
2013-09-10 01:40:00,82.6,71.8,29.72,South,183,10.0,17.0,70,0.00,,SCT250,0.00,VWS V14.01,2013-09-10 06:40:00,
2013-09-10 01:45:00,82.5,71.7,29.72,North,360,2.0,15.0,70,0.00,,SCT250,0.00,VWS V14.01,2013-09-10 06:45:00,
2013-09-10 01:50:00,82.4,71.6,29.72,WSW,249,4.0,18.0,70,0.00,,SCT250,0.00,VWS V14.01,2013-09-10 06:50:00,
2013-09-10 01:55:00,82.3,71.5,29.72,North,360,12.0,12.0,70,0.00,,CLR,0.00,VWS V14.01,2013-09-10 06:55:00,
2013-09-10 01:56:00,82.3,71.5,29.72,WSW,244,10.0,13.0,70,0.00,,SCT250,0.00,VWS V14.01,2013-09-10 06:56:00,
2013-09-10 02:00:00,82.3,71.1,29.72,WSW,250,6.0,16.0,69,0.00,,CLR,0.00,VWS V14.01,2013-09-10 07:00:00,
2013-09-10 02:01:00,82.2,71.4,29.72,SW,221,10.0,16.0,70,0.00,,FEW250,0.00,VWS V14.01,2013-09-10 07:01:00,
2013-09-10 02:05:00,82.1,71.3,29.73,South,188,1.0,15.0,70,0.00,,CLR,0.00,VWS V14.01,2013-09-10 07:05:00,
2013-09-10 02:06:00,82.1,71.3,29.73,North,360,7.0,15.0,70,0.00,,FEW250,0.00,VWS V14.01,2013-09-10 07:06:00,
2013-09-10 02:10:00,82.0,71.3,29.73,WSW,246,3.0,16.0,70,0.00,,CLR,0.00,VWS V14.01,2013-09-10 07:10:00,
2013-09-10 02:11:00,82.0,71.3,29.73,WSW,238,3.0,16.0,70,0.00,,FEW250,0.00,VWS V14.01,2013-09-10 07:11:00,
2013-09-10 02:15:00,81.9,71.2,29.73,South,188,4.0,13.0,70,0.00,,CLR,0.00,VWS V14.01,2013-09-10 07:15:00,
2013-09-10 02:16:00,81.9,70.7,29.73,SW,215,3.0,14.0,69,0.00,,FEW250,0.00,VWS V14.01,2013-09-10 07:16:00,
2013-09-10 02:20:00,81.8,70.6,29.73,South,172,2.0,14.0,69,0.00,,CLR,0.00,VWS V14.01,2013-09-10 07:20:00,
2013-09-10 02:21:00,81.8,70.6,29.73,SW,229,0.0,13.0,69,0.00,,FEW250,0.00,VWS V14.01,2013-09-10 07:21:00,
2013-09-10 02:25:00,81.7,70.6,29.74,SW,236,12.0,12.0,69,0.00,,CLR,0.00,VWS V14.01,2013-09-10 07:25:00,
2013-09-10 02:26:00,81.6,70.4,29.74,SSW,206,2.0,13.0,69,0.00,,FEW250,0.00,VWS V14.01,2013-09-10 07:26:00,
2013-09-10 02:30:00,81.6,70.4,29.73,SE,138,2.0,15.0,69,0.00,,CLR,0.00,VWS V14.01,2013-09-10 07:30:00,
2013-09-10 02:31:00,81.6,70.4,29.74,SW,220,0.0,15.0,69,0.00,,FEW250,0.00,VWS V14.01,2013-09-10 07:31:00,
2013-09-10 02:35:00,81.6,70.4,29.74,SW,215,6.0,13.0,69,0.00,,CLR,0.00,VWS V14.01,2013-09-10 07:35:00,
2013-09-10 02:36:00,81.5,70.4,29.74,North,360,6.0,13.0,69,0.00,,FEW250,0.00,VWS V14.01,2013-09-10 07:36:00,
2013-09-10 02:40:00,81.4,70.3,29.74,WSW,245,2.0,11.0,69,0.00,,CLR,0.00,VWS V14.01,2013-09-10 07:40:00,
2013-09-10 02:41:00,81.4,70.3,29.74,North,360,1.0,14.0,69,0.00,,FEW250,0.00,VWS V14.01,2013-09-10 07:41:00,
2013-09-10 02:45:00,81.4,70.3,29.74,SW,234,14.0,14.0,69,0.00,,CLR,0.00,VWS V14.01,2013-09-10 07:45:00,
2013-09-10 02:46:00,81.4,69.8,29.74,SW,228,2.0,14.0,68,0.00,,FEW250,0.00,VWS V14.01,2013-09-10 07:46:00,
2013-09-10 02:50:00,81.4,69.8,29.74,North,360,11.0,14.0,68,0.00,,CLR,0.00,VWS V14.01,2013-09-10 07:50:00,
2013-09-10 02:51:00,81.4,69.8,29.74,North,360,13.0,15.0,68,0.00,,FEW250,0.00,VWS V14.01,2013-09-10 07:51:00,
2013-09-10 02:55:00,81.4,69.8,29.74,North,360,10.0,14.0,68,0.00,,CLR,0.00,VWS V14.01,2013-09-10 07:55:00,
2013-09-10 02:56:00,81.4,69.8,29.74,SSE,167,4.0,14.0,68,0.00,,FEW250,0.00,VWS V14.01,2013-09-10 07:56:00,
2013-09-10 03:00:00,81.4,69.4,29.74,SW,228,11.0,14.0,67,0.00,,CLR,0.00,VWS V14.01,2013-09-10 08:00:00,
2013-09-10 03:01:00,81.4,69.4,29.74,North,360,2.0,13.0,67,0.00,,FEW150,0.00,VWS V14.01,2013-09-10 08:01:00,
2013-09-10 03:05:00,81.5,69.5,29.74,WSW,238,2.0,15.0,67,0.00,,CLR,0.00,VWS V14.01,2013-09-10 08:05:00,
2013-09-10 03:06:00,81.4,69.4,29.75,North,360,7.0,16.0,67,0.00,,FEW150,0.00,VWS V14.01,2013-09-10 08:06:00,
2013-09-10 03:10:00,81.4,69.4,29.75,SW,222,1.0,13.0,67,0.00,,CLR,0.00,VWS V14.01,2013-09-10 08:10:00,
2013-09-10 03:11:00,81.4,69.0,29.75,North,360,2.0,13.0,66,0.00,,FEW150,0.00,VWS V14.01,2013-09-10 08:11:00,
2013-09-10 03:15:00,81.4,69.0,29.75,West,268,12.0,12.0,66,0.00,,CLR,0.00,VWS V14.01,2013-09-10 08:15:00,
2013-09-10 03:16:00,81.3,68.9,29.75,SW,228,8.0,12.0,66,0.00,,FEW150,0.00,VWS V14.01,2013-09-10 08:16:00,
2013-09-10 03:20:00,81.3,68.9,29.75,North,360,3.0,14.0,66,0.00,,CLR,0.00,VWS V14.01,2013-09-10 08:20:00,
2013-09-10 03:21:00,81.3,68.9,29.75,North,360,9.0,14.0,66,0.00,,FEW150,0.00,VWS V14.01,2013-09-10 08:21:00,
2013-09-10 03:25:00,81.2,68.8,29.75,SW,218,3.0,10.0,66,0.00,,CLR,0.00,VWS V14.01,2013-09-10 08:25:00,
2013-09-10 03:26:00,81.1,68.7,29.75,SSW,207,6.0,10.0,66,0.00,,FEW150,0.00,VWS V14.01,2013-09-10 08:26:00,
2013-09-10 03:30:00,81.0,68.6,29.75,SW,234,0.0,10.0,66,0.00,,CLR,0.00,VWS V14.01,2013-09-10 08:30:00,
2013-09-10 03:31:00,80.9,68.5,29.75,SW,220,1.0,10.0,66,0.00,,FEW150,0.00,VWS V14.01,2013-09-10 08:31:00,
2013-09-10 03:35:00,80.9,68.9,29.75,WSW,238,3.0,10.0,67,0.00,,CLR,0.00,VWS V14.01,2013-09-10 08:35:00,
2013-09-10 03:37:00,80.7,68.7,29.75,North,360,9.0,9.0,67,0.00,,FEW150,0.00,VWS V14.01,2013-09-10 08:37:00,
2013-09-10 03:40:00,80.7,68.7,29.75,SW,221,7.0,11.0,67,0.00,,CLR,0.00,VWS V14.01,2013-09-10 08:40:00,
2013-09-10 03:42:00,80.7,68.3,29.75,North,360,2.0,11.0,66,0.00,,FEW150,0.00,VWS V14.01,2013-09-10 08:42:00,
2013-09-10 03:45:00,80.6,68.6,29.75,SSW,192,3.0,11.0,67,0.00,,CLR,0.00,VWS V14.01,2013-09-10 08:45:00,
2013-09-10 03:47:00,80.6,68.2,29.75,SW,223,9.0,15.0,66,0.00,,FEW150,0.00,VWS V14.01,2013-09-10 08:47:00,
2013-09-10 03:50:00,80.5,68.5,29.75,SW,220,3.0,15.0,67,0.00,,CLR,0.00,VWS V14.01,2013-09-10 08:50:00,
2013-09-10 03:52:00,80.4,68.4,29.75,WSW,240,2.0,13.0,67,0.00,,FEW150,0.00,VWS V14.01,2013-09-10 08:52:00,
2013-09-10 03:55:00,80.3,68.3,29.75,North,360,7.0,13.0,67,0.00,,CLR,0.00,VWS V14.01,2013-09-10 08:55:00,
2013-09-10 03:57:00,80.3,68.3,29.75,SW,227,4.0,12.0,67,0.00,,FEW150,0.00,VWS V14.01,2013-09-10 08:57:00,
2013-09-10 04:00:00,80.2,68.3,29.75,North,360,5.0,9.0,67,0.00,,CLR,0.00,VWS V14.01,2013-09-10 09:00:00,
2013-09-10 04:02:00,80.2,67.8,29.75,WSW,258,1.0,10.0,66,0.00,,CLR,0.00,VWS V14.01,2013-09-10 09:02:00,
2013-09-10 04:05:00,80.2,67.8,29.75,WSW,250,0.0,11.0,66,0.00,,CLR,0.00,VWS V14.01,2013-09-10 09:05:00,
2013-09-10 04:07:00,80.1,67.7,29.75,North,360,7.0,11.0,66,0.00,,CLR,0.00,VWS V14.01,2013-09-10 09:07:00,
2013-09-10 04:10:00,80.1,67.7,29.75,SW,225,10.0,10.0,66,0.00,,CLR,0.00,VWS V14.01,2013-09-10 09:10:00,
2013-09-10 04:12:00,80.1,67.7,29.75,SW,230,0.0,11.0,66,0.00,,CLR,0.00,VWS V14.01,2013-09-10 09:12:00,
2013-09-10 04:15:00,80.1,67.7,29.75,SW,222,9.0,11.0,66,0.00,,CLR,0.00,VWS V14.01,2013-09-10 09:15:00,
2013-09-10 04:17:00,80.2,67.4,29.75,North,360,12.0,13.0,65,0.00,,CLR,0.00,VWS V14.01,2013-09-10 09:17:00,
2013-09-10 04:20:00,80.3,67.5,29.75,WSW,245,1.0,13.0,65,0.00,,CLR,0.00,VWS V14.01,2013-09-10 09:20:00,
2013-09-10 04:22:00,80.3,67.5,29.75,SW,221,9.0,12.0,65,0.00,,CLR,0.00,VWS V14.01,2013-09-10 09:22:00,
2013-09-10 04:25:00,80.3,67.5,29.75,SW,223,4.0,12.0,65,0.00,,CLR,0.00,VWS V14.01,2013-09-10 09:25:00,
2013-09-10 04:27:00,80.3,67.5,29.75,WSW,251,1.0,16.0,65,0.00,,CLR,0.00,VWS V14.01,2013-09-10 09:27:00,
2013-09-10 04:30:00,80.3,67.5,29.75,North,360,5.0,16.0,65,0.00,,CLR,0.00,VWS V14.01,2013-09-10 09:30:00,
2013-09-10 04:32:00,80.4,67.1,29.75,WSW,244,14.0,15.0,64,0.00,,CLR,0.00,VWS V14.01,2013-09-10 09:32:00,
2013-09-10 04:35:00,80.5,67.2,29.75,North,360,13.0,16.0,64,0.00,,CLR,0.00,VWS V14.01,2013-09-10 09:35:00,
2013-09-10 04:37:00,80.6,67.3,29.75,North,360,4.0,16.0,64,0.00,,CLR,0.00,VWS V14.01,2013-09-10 09:37:00,
2013-09-10 04:40:00,80.6,67.3,29.75,SW,235,0.0,16.0,64,0.00,,CLR,0.00,VWS V14.01,2013-09-10 09:40:00,
2013-09-10 04:42:00,80.6,67.3,29.76,SW,226,2.0,14.0,64,0.00,,CLR,0.00,VWS V14.01,2013-09-10 09:42:00,
2013-09-10 04:45:00,80.6,67.3,29.76,SW,225,3.0,14.0,64,0.00,,CLR,0.00,VWS V14.01,2013-09-10 09:45:00,
2013-09-10 04:47:00,80.5,67.2,29.76,North,360,2.0,13.0,64,0.00,,CLR,0.00,VWS V14.01,2013-09-10 09:47:00,
2013-09-10 04:50:00,80.5,67.2,29.75,South,171,2.0,14.0,64,0.00,,CLR,0.00,VWS V14.01,2013-09-10 09:50:00,
2013-09-10 04:52:00,80.5,66.8,29.76,North,360,3.0,15.0,63,0.00,,CLR,0.00,VWS V14.01,2013-09-10 09:52:00,
2013-09-10 04:55:00,80.5,67.2,29.76,WSW,253,10.0,15.0,64,0.00,,CLR,0.00,VWS V14.01,2013-09-10 09:55:00,
2013-09-10 04:57:00,80.5,66.8,29.76,WSW,241,3.0,13.0,63,0.00,,CLR,0.00,VWS V14.01,2013-09-10 09:57:00,
2013-09-10 05:00:00,80.4,66.7,29.76,SW,219,0.0,12.0,63,0.00,,CLR,0.00,VWS V14.01,2013-09-10 10:00:00,
2013-09-10 05:03:00,80.3,67.0,29.76,North,360,10.0,12.0,64,0.00,,CLR,0.00,VWS V14.01,2013-09-10 10:03:00,
2013-09-10 05:05:00,80.3,67.0,29.76,SSE,155,4.0,12.0,64,0.00,,CLR,0.00,VWS V14.01,2013-09-10 10:05:00,
2013-09-10 05:08:00,80.2,66.9,29.76,SSW,211,2.0,17.0,64,0.00,,CLR,0.00,VWS V14.01,2013-09-10 10:08:00,
2013-09-10 05:10:00,80.2,66.9,29.76,WSW,252,3.0,17.0,64,0.00,,CLR,0.00,VWS V14.01,2013-09-10 10:10:00,
2013-09-10 05:13:00,80.1,66.8,29.76,North,360,0.0,13.0,64,0.00,,CLR,0.00,VWS V14.01,2013-09-10 10:13:00,
2013-09-10 05:15:00,80.1,66.8,29.76,North,360,1.0,13.0,64,0.00,,CLR,0.00,VWS V14.01,2013-09-10 10:15:00,
2013-09-10 05:18:00,80.0,66.7,29.76,West,277,2.0,16.0,64,0.00,,CLR,0.00,VWS V14.01,2013-09-10 10:18:00,
2013-09-10 05:20:00,80.0,66.7,29.76,North,360,4.0,12.0,64,0.00,,CLR,0.00,VWS V14.01,2013-09-10 10:20:00,
2013-09-10 05:23:00,79.9,66.7,29.76,North,360,3.0,13.0,64,0.00,,CLR,0.00,VWS V14.01,2013-09-10 10:23:00,
2013-09-10 05:25:00,79.8,66.6,29.76,SSW,203,4.0,13.0,64,0.00,,CLR,0.00,VWS V14.01,2013-09-10 10:25:00,
2013-09-10 05:28:00,79.9,66.7,29.76,WNW,300,2.0,14.0,64,0.00,,CLR,0.00,VWS V14.01,2013-09-10 10:28:00,
2013-09-10 05:30:00,79.9,66.6,29.76,North,360,7.0,14.0,64,0.00,,CLR,0.00,VWS V14.01,2013-09-10 10:30:00,
2013-09-10 05:33:00,79.9,66.7,29.76,North,360,2.0,13.0,64,0.00,,CLR,0.00,VWS V14.01,2013-09-10 10:33:00,
2013-09-10 05:35:00,79.9,66.2,29.76,West,267,13.0,13.0,63,0.00,,CLR,0.00,VWS V14.01,2013-09-10 10:35:00,
2013-09-10 05:38:00,79.9,66.2,29.76,North,360,8.0,14.0,63,0.00,,CLR,0.00,VWS V14.01,2013-09-10 10:38:00,
2013-09-10 05:40:00,79.9,66.2,29.76,SW,232,5.0,14.0,63,0.00,,CLR,0.00,VWS V14.01,2013-09-10 10:40:00,
2013-09-10 05:43:00,79.8,66.1,29.77,WSW,248,5.0,14.0,63,0.00,,CLR,0.00,VWS V14.01,2013-09-10 10:43:00,
2013-09-10 05:45:00,79.8,66.1,29.77,SW,234,11.0,14.0,63,0.00,,CLR,0.00,VWS V14.01,2013-09-10 10:45:00,
2013-09-10 05:48:00,79.8,66.1,29.77,WSW,241,4.0,15.0,63,0.00,,CLR,0.00,VWS V14.01,2013-09-10 10:48:00,
2013-09-10 05:50:00,79.8,66.1,29.77,WSW,245,11.0,14.0,63,0.00,,CLR,0.00,VWS V14.01,2013-09-10 10:50:00,
2013-09-10 05:53:00,79.7,66.0,29.77,West,279,3.0,14.0,63,0.00,,CLR,0.00,VWS V14.01,2013-09-10 10:53:00,
2013-09-10 05:55:00,79.7,66.0,29.77,SW,236,2.0,14.0,63,0.00,,CLR,0.00,VWS V14.01,2013-09-10 10:55:00,
2013-09-10 05:58:00,79.5,65.8,29.77,North,360,4.0,13.0,63,0.00,,CLR,0.00,VWS V14.01,2013-09-10 10:58:00,
2013-09-10 06:00:00,79.5,65.8,29.77,SSW,202,0.0,13.0,63,0.00,,CLR,0.00,VWS V14.01,2013-09-10 11:00:00,
2013-09-10 06:03:00,79.4,65.7,29.77,North,360,0.0,12.0,63,0.00,,CLR,0.00,VWS V14.01,2013-09-10 11:03:00,
2013-09-10 06:05:00,79.4,65.7,29.77,SW,227,0.0,12.0,63,0.00,,CLR,0.00,VWS V14.01,2013-09-10 11:05:00,
2013-09-10 06:08:00,79.4,65.7,29.78,North,360,0.0,14.0,63,0.00,,CLR,0.00,VWS V14.01,2013-09-10 11:08:00,
2013-09-10 06:10:00,79.4,65.7,29.78,WSW,243,0.0,14.0,63,0.00,,CLR,0.00,VWS V14.01,2013-09-10 11:10:00,
2013-09-10 06:13:00,79.4,65.7,29.78,North,360,3.0,12.0,63,0.00,,CLR,0.00,VWS V14.01,2013-09-10 11:13:00,
2013-09-10 06:15:00,79.4,65.7,29.78,WSW,251,7.0,12.0,63,0.00,,CLR,0.00,VWS V14.01,2013-09-10 11:15:00,
2013-09-10 06:18:00,79.4,65.7,29.78,North,360,12.0,13.0,63,0.00,,CLR,0.00,VWS V14.01,2013-09-10 11:18:00,
2013-09-10 06:20:00,79.4,65.7,29.78,WSW,242,8.0,15.0,63,0.00,,CLR,0.00,VWS V14.01,2013-09-10 11:20:00,
2013-09-10 06:23:00,79.4,65.7,29.78,North,360,1.0,13.0,63,0.00,,CLR,0.00,VWS V14.01,2013-09-10 11:23:00,
2013-09-10 06:25:00,79.4,65.7,29.78,South,183,3.0,13.0,63,0.00,,CLR,0.00,VWS V14.01,2013-09-10 11:25:00,
2013-09-10 06:28:00,79.3,65.6,29.78,North,360,2.0,14.0,63,0.00,,CLR,0.00,VWS V14.01,2013-09-10 11:28:00,
2013-09-10 06:30:00,79.3,65.6,29.78,West,259,10.0,14.0,63,0.00,,CLR,0.00,VWS V14.01,2013-09-10 11:30:00,
2013-09-10 06:33:00,79.1,65.4,29.78,SW,217,5.0,14.0,63,0.00,,CLR,0.00,VWS V14.01,2013-09-10 11:33:00,
2013-09-10 06:35:00,79.1,65.4,29.78,SSW,210,0.0,14.0,63,0.00,,CLR,0.00,VWS V14.01,2013-09-10 11:35:00,
2013-09-10 06:38:00,78.9,65.7,29.78,North,360,0.0,14.0,64,0.00,,CLR,0.00,VWS V14.01,2013-09-10 11:38:00,
2013-09-10 06:40:00,78.9,65.7,29.78,North,360,3.0,14.0,64,0.00,,CLR,0.00,VWS V14.01,2013-09-10 11:40:00,
2013-09-10 06:43:00,78.8,65.6,29.79,SW,227,8.0,14.0,64,0.00,,CLR,0.00,VWS V14.01,2013-09-10 11:43:00,
2013-09-10 06:45:00,78.8,65.6,29.79,North,360,9.0,14.0,64,0.00,,CLR,0.00,VWS V14.01,2013-09-10 11:45:00,
2013-09-10 06:49:00,78.6,65.4,29.79,WSW,250,12.0,15.0,64,0.00,,CLR,0.00,VWS V14.01,2013-09-10 11:49:00,
2013-09-10 06:50:00,78.6,65.4,29.79,SSW,213,1.0,15.0,64,0.00,,CLR,0.00,VWS V14.01,2013-09-10 11:50:00,
2013-09-10 06:54:00,78.6,65.9,29.79,North,360,6.0,16.0,65,0.00,,CLR,0.00,VWS V14.01,2013-09-10 11:54:00,
2013-09-10 06:55:00,78.6,65.9,29.79,North,360,6.0,16.0,65,0.00,,CLR,0.00,VWS V14.01,2013-09-10 11:55:00,
2013-09-10 06:59:00,78.5,65.8,29.79,North,360,0.0,13.0,65,0.00,,CLR,0.00,VWS V14.01,2013-09-10 11:59:00,
2013-09-10 07:00:00,78.5,65.8,29.79,North,360,0.0,13.0,65,0.00,,CLR,0.00,VWS V14.01,2013-09-10 12:00:00,
2013-09-10 07:04:00,78.5,65.8,29.79,WSW,246,9.0,16.0,65,0.00,,FEW100,0.00,VWS V14.01,2013-09-10 12:04:00,
2013-09-10 07:05:00,78.5,65.8,29.79,WSW,246,9.0,16.0,65,0.00,,CLR,0.00,VWS V14.01,2013-09-10 12:05:00,
2013-09-10 07:09:00,78.4,65.7,29.79,SSW,213,8.0,15.0,65,0.00,,FEW100,0.00,VWS V14.01,2013-09-10 12:09:00,
2013-09-10 07:10:00,78.4,65.7,29.79,SSW,213,8.0,15.0,65,0.00,,CLR,0.00,VWS V14.01,2013-09-10 12:10:00,
2013-09-10 07:14:00,78.5,65.8,29.79,North,360,4.0,16.0,65,0.00,,FEW100,0.00,VWS V14.01,2013-09-10 12:14:00,
2013-09-10 07:15:00,78.5,65.8,29.79,North,360,4.0,16.0,65,0.00,,CLR,0.00,VWS V14.01,2013-09-10 12:15:00,
2013-09-10 07:19:00,78.6,65.4,29.80,SW,221,8.0,17.0,64,0.00,,FEW100,0.00,VWS V14.01,2013-09-10 12:19:00,
2013-09-10 07:20:00,78.6,65.4,29.80,SW,221,8.0,17.0,64,0.00,,CLR,0.00,VWS V14.01,2013-09-10 12:20:00,
2013-09-10 07:24:00,78.7,65.5,29.80,North,360,7.0,16.0,64,0.00,,FEW100,0.00,VWS V14.01,2013-09-10 12:24:00,
2013-09-10 07:25:00,78.7,65.5,29.80,North,360,7.0,16.0,64,0.00,,CLR,0.00,VWS V14.01,2013-09-10 12:25:00,
2013-09-10 07:29:00,78.8,65.6,29.80,North,360,7.0,18.0,64,0.00,,FEW100,0.00,VWS V14.01,2013-09-10 12:29:00,
2013-09-10 07:30:00,78.8,65.6,29.80,North,360,7.0,18.0,64,0.00,,CLR,0.00,VWS V14.01,2013-09-10 12:30:00,
2013-09-10 07:34:00,78.9,65.7,29.80,SW,232,9.0,13.0,64,0.00,,FEW100,0.00,VWS V14.01,2013-09-10 12:34:00,
2013-09-10 07:35:00,78.9,65.7,29.80,SW,232,9.0,13.0,64,0.00,,CLR,0.00,VWS V14.01,2013-09-10 12:35:00,
2013-09-10 07:39:00,78.9,65.7,29.80,North,360,11.0,14.0,64,0.00,,FEW100,0.00,VWS V14.01,2013-09-10 12:39:00,
2013-09-10 07:40:00,78.9,65.7,29.80,North,360,11.0,14.0,64,0.00,,CLR,0.00,VWS V14.01,2013-09-10 12:40:00,
2013-09-10 07:44:00,79.0,65.8,29.80,SW,219,0.0,14.0,64,0.00,,FEW100,0.00,VWS V14.01,2013-09-10 12:44:00,
2013-09-10 07:45:00,79.0,65.8,29.80,SW,219,0.0,14.0,64,0.00,,CLR,0.00,VWS V14.01,2013-09-10 12:45:00,
2013-09-10 07:49:00,79.1,65.4,29.80,North,360,10.0,20.0,63,0.00,,FEW100,0.00,VWS V14.01,2013-09-10 12:49:00,
2013-09-10 07:50:00,79.1,65.4,29.80,North,360,10.0,20.0,63,0.00,,CLR,0.00,VWS V14.01,2013-09-10 12:50:00,
2013-09-10 07:54:00,79.2,65.5,29.80,WSW,248,11.0,18.0,63,0.00,,FEW100,0.00,VWS V14.01,2013-09-10 12:54:00,
2013-09-10 07:55:00,79.2,65.5,29.80,WSW,248,11.0,18.0,63,0.00,,CLR,0.00,VWS V14.01,2013-09-10 12:55:00,
2013-09-10 07:59:00,79.4,65.3,29.80,SW,228,12.0,18.0,62,0.00,,FEW100,0.00,VWS V14.01,2013-09-10 12:59:00,
2013-09-10 08:00:00,79.4,65.3,29.80,SW,228,12.0,18.0,62,0.00,,CLR,0.00,VWS V14.01,2013-09-10 13:00:00,
2013-09-10 08:04:00,79.6,65.4,29.80,WSW,258,4.0,14.0,62,0.00,,FEW100,0.00,VWS V14.01,2013-09-10 13:04:00,
2013-09-10 08:05:00,79.6,65.4,29.80,WSW,238,1.0,14.0,62,0.00,,CLR,0.00,VWS V14.01,2013-09-10 13:05:00,
2013-09-10 08:10:00,79.8,65.6,29.80,North,360,8.0,18.0,62,0.00,,FEW100,0.00,VWS V14.01,2013-09-10 13:10:00,
2013-09-10 08:15:00,80.0,65.4,29.80,North,360,6.0,15.0,61,0.00,,FEW100,0.00,VWS V14.01,2013-09-10 13:15:00,
2013-09-10 08:20:00,80.2,65.5,29.80,North,360,3.0,18.0,61,0.00,,FEW100,0.00,VWS V14.01,2013-09-10 13:20:00,
2013-09-10 08:25:00,80.4,65.3,29.80,North,360,12.0,16.0,60,0.00,,FEW100,0.00,VWS V14.01,2013-09-10 13:25:00,
2013-09-10 08:30:00,80.7,65.5,29.80,North,360,8.0,17.0,60,0.00,,FEW100,0.00,VWS V14.01,2013-09-10 13:30:00,
2013-09-10 08:35:00,80.9,65.2,29.80,South,190,8.0,20.0,59,0.00,,FEW100,0.00,VWS V14.01,2013-09-10 13:35:00,
2013-09-10 08:40:00,81.1,65.4,29.80,SSW,196,5.0,15.0,59,0.00,,FEW100,0.00,VWS V14.01,2013-09-10 13:40:00,
2013-09-10 08:45:00,81.3,65.6,29.81,North,360,5.0,17.0,59,0.00,,FEW100,0.00,VWS V14.01,2013-09-10 13:45:00,
2013-09-10 08:50:00,81.5,65.8,29.81,West,271,8.0,15.0,59,0.00,,FEW100,0.00,VWS V14.01,2013-09-10 13:50:00,
2013-09-10 08:55:00,81.7,65.5,29.81,SW,215,4.0,18.0,58,0.00,,FEW100,0.00,VWS V14.01,2013-09-10 13:55:00,
2013-09-10 09:00:00,81.9,65.7,29.81,SW,233,7.0,19.0,58,0.00,,CLR,0.00,VWS V14.01,2013-09-10 14:00:00,
2013-09-10 09:05:00,82.0,65.3,29.81,North,360,13.0,19.0,57,0.00,,CLR,0.00,VWS V14.01,2013-09-10 14:05:00,
2013-09-10 09:10:00,82.1,65.4,29.81,South,171,0.0,16.0,57,0.00,,CLR,0.00,VWS V14.01,2013-09-10 14:10:00,
2013-09-10 09:15:00,82.3,65.6,29.82,SW,218,4.0,17.0,57,0.00,,CLR,0.00,VWS V14.01,2013-09-10 14:15:00,
2013-09-10 09:20:00,82.5,65.8,29.82,WSW,252,3.0,17.0,57,0.00,,CLR,0.00,VWS V14.01,2013-09-10 14:20:00,
2013-09-10 09:25:00,82.6,65.8,29.82,North,360,8.0,18.0,57,0.00,,CLR,0.00,VWS V14.01,2013-09-10 14:25:00,
2013-09-10 09:30:00,82.9,66.1,29.82,North,360,8.0,15.0,57,0.00,,CLR,0.00,VWS V14.01,2013-09-10 14:30:00,
2013-09-10 09:35:00,83.2,65.9,29.82,North,360,8.0,21.0,56,0.00,,CLR,0.00,VWS V14.01,2013-09-10 14:35:00,
2013-09-10 09:40:00,83.2,65.9,29.82,North,360,11.0,21.0,56,0.00,,CLR,0.00,VWS V14.01,2013-09-10 14:40:00,
2013-09-10 09:41:00,83.2,66.4,29.82,North,360,5.0,16.0,57,0.00,,CLR,0.00,VWS V14.01,2013-09-10 14:41:00,
2013-09-10 09:45:00,83.3,66.0,29.82,North,360,6.0,16.0,56,0.00,,CLR,0.00,VWS V14.01,2013-09-10 14:45:00,
2013-09-10 09:46:00,83.4,66.1,29.82,SW,230,7.0,16.0,56,0.00,,CLR,0.00,VWS V14.01,2013-09-10 14:46:00,
2013-09-10 09:50:00,83.6,66.3,29.82,North,360,15.0,20.0,56,0.00,,CLR,0.00,VWS V14.01,2013-09-10 14:50:00,
2013-09-10 09:51:00,83.6,66.3,29.82,North,360,9.0,20.0,56,0.00,,CLR,0.00,VWS V14.01,2013-09-10 14:51:00,
2013-09-10 09:55:00,83.8,65.9,29.82,South,184,5.0,17.0,55,0.00,,CLR,0.00,VWS V14.01,2013-09-10 14:55:00,
2013-09-10 09:56:00,83.8,65.9,29.82,West,264,8.0,18.0,55,0.00,,CLR,0.00,VWS V14.01,2013-09-10 14:56:00,
2013-09-10 10:00:00,83.8,65.9,29.82,North,360,20.0,20.0,55,0.00,,CLR,0.00,VWS V14.01,2013-09-10 15:00:00,
2013-09-10 10:01:00,83.8,65.9,29.82,North,360,5.0,20.0,55,0.00,,CLR,0.00,VWS V14.01,2013-09-10 15:01:00,
2013-09-10 10:05:00,83.9,66.0,29.82,SW,236,8.0,18.0,55,0.00,,CLR,0.00,VWS V14.01,2013-09-10 15:05:00,
2013-09-10 10:06:00,84.0,66.1,29.82,SW,215,0.0,17.0,55,0.00,,CLR,0.00,VWS V14.01,2013-09-10 15:06:00,
2013-09-10 10:10:00,84.1,66.2,29.82,WSW,252,0.0,15.0,55,0.00,,CLR,0.00,VWS V14.01,2013-09-10 15:10:00,
2013-09-10 10:11:00,84.3,66.4,29.82,WSW,257,13.0,16.0,55,0.00,,CLR,0.00,VWS V14.01,2013-09-10 15:11:00,
2013-09-10 10:15:00,84.4,65.9,29.82,North,360,9.0,22.0,54,0.00,,CLR,0.00,VWS V14.01,2013-09-10 15:15:00,
2013-09-10 10:16:00,84.3,66.4,29.82,SSE,167,8.0,22.0,55,0.00,,CLR,0.00,VWS V14.01,2013-09-10 15:16:00,
2013-09-10 10:20:00,84.5,66.1,29.82,North,360,10.0,18.0,54,0.00,,CLR,0.00,VWS V14.01,2013-09-10 15:20:00,
2013-09-10 10:21:00,84.6,66.7,29.82,North,360,6.0,18.0,55,0.00,,CLR,0.00,VWS V14.01,2013-09-10 15:21:00,
2013-09-10 10:25:00,84.8,66.8,29.82,North,360,11.0,14.0,55,0.00,,CLR,0.00,VWS V14.01,2013-09-10 15:25:00,
2013-09-10 10:26:00,85.0,66.5,29.82,West,264,7.0,14.0,54,0.00,,CLR,0.00,VWS V14.01,2013-09-10 15:26:00,
2013-09-10 10:30:00,85.1,66.6,29.82,NW,312,3.0,16.0,54,0.00,,CLR,0.00,VWS V14.01,2013-09-10 15:30:00,
2013-09-10 10:31:00,85.2,67.2,29.82,SSW,209,7.0,16.0,55,0.00,,CLR,0.00,VWS V14.01,2013-09-10 15:31:00,
2013-09-10 10:35:00,85.5,67.0,29.82,North,360,12.0,15.0,54,0.00,,CLR,0.00,VWS V14.01,2013-09-10 15:35:00,
2013-09-10 10:36:00,85.5,66.4,29.82,North,360,12.0,15.0,53,0.00,,CLR,0.00,VWS V14.01,2013-09-10 15:36:00,
2013-09-10 10:40:00,85.6,67.1,29.82,WSW,250,15.0,15.0,54,0.00,,CLR,0.00,VWS V14.01,2013-09-10 15:40:00,
2013-09-10 10:41:00,85.6,66.5,29.82,West,267,3.0,16.0,53,0.00,,CLR,0.00,VWS V14.01,2013-09-10 15:41:00,
2013-09-10 10:45:00,85.7,66.6,29.82,North,360,9.0,13.0,53,0.00,,CLR,0.00,VWS V14.01,2013-09-10 15:45:00,
2013-09-10 10:46:00,85.8,66.7,29.82,North,360,16.0,16.0,53,0.00,,CLR,0.00,VWS V14.01,2013-09-10 15:46:00,
2013-09-10 10:50:00,85.9,66.8,29.82,North,360,13.0,17.0,53,0.00,,CLR,0.00,VWS V14.01,2013-09-10 15:50:00,
2013-09-10 10:51:00,85.9,66.8,29.82,WSW,245,4.0,17.0,53,0.00,,CLR,0.00,VWS V14.01,2013-09-10 15:51:00,
2013-09-10 10:55:00,86.0,66.9,29.82,North,360,9.0,16.0,53,0.00,,CLR,0.00,VWS V14.01,2013-09-10 15:55:00,
2013-09-10 10:57:00,86.2,67.1,29.82,North,360,12.0,16.0,53,0.00,,CLR,0.00,VWS V14.01,2013-09-10 15:57:00,
2013-09-10 11:00:00,86.2,66.5,29.82,SSE,165,9.0,19.0,52,0.00,,CLR,0.00,VWS V14.01,2013-09-10 16:00:00,
2013-09-10 11:02:00,86.3,66.6,29.82,South,177,8.0,19.0,52,0.00,,CLR,0.00,VWS V14.01,2013-09-10 16:02:00,
2013-09-10 11:05:00,86.4,67.3,29.82,North,360,7.0,17.0,53,0.00,,CLR,0.00,VWS V14.01,2013-09-10 16:05:00,
2013-09-10 11:07:00,86.7,68.1,29.82,SW,229,7.0,14.0,54,0.00,,CLR,0.00,VWS V14.01,2013-09-10 16:07:00,
2013-09-10 11:10:00,87.0,67.3,29.82,North,360,9.0,18.0,52,0.00,,CLR,0.00,VWS V14.01,2013-09-10 16:10:00,
2013-09-10 11:12:00,87.0,67.3,29.82,SSW,202,10.0,18.0,52,0.00,,CLR,0.00,VWS V14.01,2013-09-10 16:12:00,
2013-09-10 11:15:00,87.0,67.3,29.82,West,265,6.0,17.0,52,0.00,,CLR,0.00,VWS V14.01,2013-09-10 16:15:00,
2013-09-10 11:17:00,87.4,67.6,29.82,North,360,14.0,17.0,52,0.00,,CLR,0.00,VWS V14.01,2013-09-10 16:17:00,
2013-09-10 11:20:00,87.5,66.6,29.82,North,360,8.0,18.0,50,0.00,,CLR,0.00,VWS V14.01,2013-09-10 16:20:00,
2013-09-10 11:22:00,87.5,67.2,29.82,WSW,248,3.0,18.0,51,0.00,,CLR,0.00,VWS V14.01,2013-09-10 16:22:00,
2013-09-10 11:25:00,87.6,67.2,29.82,SW,225,8.0,14.0,51,0.00,,CLR,0.00,VWS V14.01,2013-09-10 16:25:00,
2013-09-10 11:27:00,87.9,66.9,29.82,North,360,8.0,13.0,50,0.00,,CLR,0.00,VWS V14.01,2013-09-10 16:27:00,
2013-09-10 11:30:00,87.9,67.0,29.82,SSW,192,10.0,15.0,50,0.00,,CLR,0.00,VWS V14.01,2013-09-10 16:30:00,
2013-09-10 11:32:00,87.7,66.8,29.82,North,360,17.0,17.0,50,0.00,,CLR,0.00,VWS V14.01,2013-09-10 16:32:00,
2013-09-10 11:35:00,87.5,66.6,29.82,SW,226,15.0,17.0,50,0.00,,CLR,0.00,VWS V14.01,2013-09-10 16:35:00,
2013-09-10 11:37:00,87.6,66.7,29.81,North,360,9.0,17.0,50,0.00,,CLR,0.00,VWS V14.01,2013-09-10 16:37:00,
2013-09-10 11:40:00,87.7,66.8,29.81,North,360,10.0,17.0,50,0.00,,CLR,0.00,VWS V14.01,2013-09-10 16:40:00,
2013-09-10 11:42:00,88.0,67.1,29.81,North,360,8.0,17.0,50,0.00,,CLR,0.00,VWS V14.01,2013-09-10 16:42:00,
2013-09-10 11:45:00,88.1,67.1,29.81,WSW,252,14.0,19.0,50,0.00,,CLR,0.00,VWS V14.01,2013-09-10 16:45:00,
2013-09-10 11:47:00,88.2,66.1,29.81,SW,224,17.0,19.0,48,0.00,,CLR,0.00,VWS V14.01,2013-09-10 16:47:00,
2013-09-10 11:50:00,88.2,66.6,29.81,North,360,8.0,19.0,49,0.00,,CLR,0.00,VWS V14.01,2013-09-10 16:50:00,
2013-09-10 11:52:00,88.5,66.9,29.81,SW,222,10.0,16.0,49,0.00,,CLR,0.00,VWS V14.01,2013-09-10 16:52:00,
2013-09-10 11:55:00,88.6,67.0,29.81,West,261,8.0,15.0,49,0.00,,CLR,0.00,VWS V14.01,2013-09-10 16:55:00,
2013-09-10 11:57:00,88.9,66.7,29.81,North,360,13.0,15.0,48,0.00,,CLR,0.00,VWS V14.01,2013-09-10 16:57:00,
2013-09-10 12:00:00,89.0,66.8,29.81,SW,233,9.0,15.0,48,0.00,,CLR,0.00,VWS V14.01,2013-09-10 17:00:00,
2013-09-10 12:02:00,89.3,67.1,29.81,SW,221,6.0,15.0,48,0.00,,CLR,0.00,VWS V14.01,2013-09-10 17:02:00,
2013-09-10 12:05:00,89.5,67.8,29.81,North,360,1.0,12.0,49,0.00,,CLR,0.00,VWS V14.01,2013-09-10 17:05:00,
2013-09-10 12:07:00,89.6,67.3,29.81,North,360,8.0,17.0,48,0.00,,CLR,0.00,VWS V14.01,2013-09-10 17:07:00,
2013-09-10 12:10:00,89.6,67.9,29.81,North,360,3.0,17.0,49,0.00,,CLR,0.00,VWS V14.01,2013-09-10 17:10:00,
2013-09-10 12:12:00,89.9,67.0,29.81,North,360,18.0,20.0,47,0.00,,CLR,0.00,VWS V14.01,2013-09-10 17:12:00,
2013-09-10 12:15:00,89.9,67.0,29.82,North,360,13.0,20.0,47,0.00,,CLR,0.00,VWS V14.01,2013-09-10 17:15:00,
2013-09-10 12:17:00,89.9,67.0,29.82,North,360,9.0,15.0,47,0.00,,CLR,0.00,VWS V14.01,2013-09-10 17:17:00,
2013-09-10 12:20:00,89.9,67.0,29.82,SW,225,5.0,16.0,47,0.00,,CLR,0.00,VWS V14.01,2013-09-10 17:20:00,
2013-09-10 12:23:00,89.9,67.0,29.82,North,360,13.0,18.0,47,0.00,,CLR,0.00,VWS V14.01,2013-09-10 17:23:00,
2013-09-10 12:25:00,89.9,67.0,29.82,SSW,211,0.0,18.0,47,0.00,,CLR,0.00,VWS V14.01,2013-09-10 17:25:00,
2013-09-10 12:28:00,90.2,66.6,29.82,SW,223,6.0,18.0,46,0.00,,CLR,0.00,VWS V14.01,2013-09-10 17:28:00,
2013-09-10 12:30:00,90.2,66.6,29.82,North,360,9.0,18.0,46,0.00,,CLR,0.00,VWS V14.01,2013-09-10 17:30:00,
2013-09-10 12:33:00,90.6,65.7,29.82,SW,215,16.0,19.0,44,0.00,,CLR,0.00,VWS V14.01,2013-09-10 17:33:00,
2013-09-10 12:35:00,90.7,66.5,29.82,SW,229,10.0,21.0,45,0.00,,CLR,0.00,VWS V14.01,2013-09-10 17:35:00,
2013-09-10 12:38:00,90.9,66.6,29.82,North,360,4.0,21.0,45,0.00,,CLR,0.00,VWS V14.01,2013-09-10 17:38:00,
2013-09-10 12:40:00,91.0,66.7,29.82,North,360,3.0,15.0,45,0.00,,CLR,0.00,VWS V14.01,2013-09-10 17:40:00,
2013-09-10 12:43:00,91.2,66.3,29.82,SSW,213,10.0,14.0,44,0.00,,CLR,0.00,VWS V14.01,2013-09-10 17:43:00,
2013-09-10 12:45:00,91.3,67.0,29.82,West,260,3.0,14.0,45,0.00,,CLR,0.00,VWS V14.01,2013-09-10 17:45:00,
2013-09-10 12:48:00,91.9,66.9,29.82,SW,232,5.0,12.0,44,0.00,,CLR,0.00,VWS V14.01,2013-09-10 17:48:00,
2013-09-10 12:50:00,91.9,66.9,29.82,SW,226,2.0,19.0,44,0.00,,CLR,0.00,VWS V14.01,2013-09-10 17:50:00,
2013-09-10 12:53:00,91.8,66.8,29.82,North,360,11.0,16.0,44,0.00,,CLR,0.00,VWS V14.01,2013-09-10 17:53:00,
2013-09-10 12:55:00,91.9,66.9,29.82,North,360,12.0,16.0,44,0.00,,CLR,0.00,VWS V14.01,2013-09-10 17:55:00,
2013-09-10 12:58:00,92.0,67.0,29.82,West,260,10.0,16.0,44,0.00,,CLR,0.00,VWS V14.01,2013-09-10 17:58:00,
2013-09-10 13:00:00,92.0,67.0,29.82,North,360,8.0,16.0,44,0.00,,CLR,0.00,VWS V14.01,2013-09-10 18:00:00,
2013-09-10 13:03:00,92.1,67.1,29.81,WSW,242,7.0,18.0,44,0.00,,CLR,0.00,VWS V14.01,2013-09-10 18:03:00,
2013-09-10 13:05:00,92.1,67.1,29.81,North,360,0.0,18.0,44,0.00,,CLR,0.00,VWS V14.01,2013-09-10 18:05:00,
2013-09-10 13:08:00,92.6,66.9,29.81,West,261,9.0,17.0,43,0.00,,CLR,0.00,VWS V14.01,2013-09-10 18:08:00,
2013-09-10 13:10:00,92.7,66.9,29.81,WSW,237,2.0,17.0,43,0.00,,CLR,0.00,VWS V14.01,2013-09-10 18:10:00,
2013-09-10 13:13:00,92.8,66.4,29.81,North,360,11.0,18.0,42,0.00,,CLR,0.00,VWS V14.01,2013-09-10 18:13:00,
2013-09-10 13:15:00,92.9,67.1,29.81,SW,221,11.0,18.0,43,0.00,,CLR,0.00,VWS V14.01,2013-09-10 18:15:00,
2013-09-10 13:18:00,92.9,66.4,29.81,South,191,12.0,18.0,42,0.00,,CLR,0.00,VWS V14.01,2013-09-10 18:18:00,
2013-09-10 13:20:00,93.0,66.5,29.81,South,170,6.0,18.0,42,0.00,,CLR,0.00,VWS V14.01,2013-09-10 18:20:00,
2013-09-10 13:23:00,93.1,67.3,29.81,North,360,0.0,20.0,43,0.00,,CLR,0.00,VWS V14.01,2013-09-10 18:23:00,
2013-09-10 13:25:00,93.2,67.4,29.81,WSW,247,7.0,20.0,43,0.00,,CLR,0.00,VWS V14.01,2013-09-10 18:25:00,
2013-09-10 13:28:00,93.4,66.9,29.81,North,360,15.0,21.0,42,0.00,,CLR,0.00,VWS V14.01,2013-09-10 18:28:00,
2013-09-10 13:30:00,93.3,66.8,29.81,North,360,7.0,21.0,42,0.00,,CLR,0.00,VWS V14.01,2013-09-10 18:30:00,
2013-09-10 13:33:00,93.2,66.7,29.81,North,360,7.0,20.0,42,0.00,,CLR,0.00,VWS V14.01,2013-09-10 18:33:00,
2013-09-10 13:35:00,93.2,66.7,29.81,North,360,14.0,20.0,42,0.00,,CLR,0.00,VWS V14.01,2013-09-10 18:35:00,
2013-09-10 13:38:00,93.1,65.9,29.81,North,360,20.0,22.0,41,0.00,,CLR,0.00,VWS V14.01,2013-09-10 18:38:00,
2013-09-10 13:40:00,93.1,65.9,29.81,North,360,12.0,22.0,41,0.00,,CLR,0.00,VWS V14.01,2013-09-10 18:40:00,
2013-09-10 13:43:00,93.1,65.9,29.81,South,179,8.0,19.0,41,0.00,,CLR,0.00,VWS V14.01,2013-09-10 18:43:00,
2013-09-10 13:45:00,93.2,66.0,29.81,North,360,10.0,19.0,41,0.00,,CLR,0.00,VWS V14.01,2013-09-10 18:45:00,
2013-09-10 13:49:00,93.4,66.2,29.80,SSW,203,1.0,18.0,41,0.00,,CLR,0.00,VWS V14.01,2013-09-10 18:49:00,
2013-09-10 13:50:00,93.4,66.9,29.80,North,360,6.0,18.0,42,0.00,,CLR,0.00,VWS V14.01,2013-09-10 18:50:00,
2013-09-10 13:54:00,93.7,65.8,29.81,South,169,9.0,25.0,40,0.00,,CLR,0.00,VWS V14.01,2013-09-10 18:54:00,
2013-09-10 13:55:00,93.7,65.8,29.81,SSW,194,10.0,25.0,40,0.00,,CLR,0.00,VWS V14.01,2013-09-10 18:55:00,
2013-09-10 13:59:00,93.9,65.9,29.80,North,360,9.0,25.0,40,0.00,,CLR,0.00,VWS V14.01,2013-09-10 18:59:00,
2013-09-10 14:00:00,93.9,65.9,29.80,North,360,11.0,25.0,40,0.00,,CLR,0.00,VWS V14.01,2013-09-10 19:00:00,
2013-09-10 14:04:00,94.0,66.0,29.80,SSE,161,3.0,22.0,40,0.00,,CLR,0.00,VWS V14.01,2013-09-10 19:04:00,
2013-09-10 14:05:00,94.0,66.0,29.80,SW,229,10.0,22.0,40,0.00,,CLR,0.00,VWS V14.01,2013-09-10 19:05:00,
2013-09-10 14:09:00,94.2,65.5,29.80,North,360,6.0,21.0,39,0.00,,CLR,0.00,VWS V14.01,2013-09-10 19:09:00,
2013-09-10 14:10:00,94.2,65.5,29.80,SW,217,10.0,21.0,39,0.00,,CLR,0.00,VWS V14.01,2013-09-10 19:10:00,
2013-09-10 14:14:00,94.3,65.6,29.80,SSW,209,19.0,21.0,39,0.00,,CLR,0.00,VWS V14.01,2013-09-10 19:14:00,
2013-09-10 14:15:00,94.3,65.6,29.80,SSW,209,19.0,21.0,39,0.00,,CLR,0.00,VWS V14.01,2013-09-10 19:15:00,
2013-09-10 14:19:00,94.0,65.3,29.80,North,360,17.0,31.0,39,0.00,,CLR,0.00,VWS V14.01,2013-09-10 19:19:00,
2013-09-10 14:20:00,94.0,65.3,29.80,North,360,17.0,31.0,39,0.00,,CLR,0.00,VWS V14.01,2013-09-10 19:20:00,
2013-09-10 14:24:00,94.1,65.4,29.80,North,360,3.0,22.0,39,0.00,,CLR,0.00,VWS V14.01,2013-09-10 19:24:00,
2013-09-10 14:25:00,94.1,65.4,29.80,North,360,3.0,22.0,39,0.00,,CLR,0.00,VWS V14.01,2013-09-10 19:25:00,
2013-09-10 14:29:00,94.3,64.8,29.80,North,360,7.0,23.0,38,0.00,,CLR,0.00,VWS V14.01,2013-09-10 19:29:00,
2013-09-10 14:30:00,94.3,64.8,29.80,WSW,250,9.0,23.0,38,0.00,,CLR,0.00,VWS V14.01,2013-09-10 19:30:00,
2013-09-10 14:34:00,94.4,65.7,29.80,SW,231,8.0,16.0,39,0.00,,CLR,0.00,VWS V14.01,2013-09-10 19:34:00,
2013-09-10 14:35:00,94.4,65.7,29.80,WSW,246,6.0,16.0,39,0.00,,CLR,0.00,VWS V14.01,2013-09-10 19:35:00,
2013-09-10 14:39:00,94.6,65.1,29.80,North,360,13.0,22.0,38,0.00,,CLR,0.00,VWS V14.01,2013-09-10 19:39:00,
2013-09-10 14:40:00,94.6,65.8,29.80,WSW,249,9.0,22.0,39,0.00,,CLR,0.00,VWS V14.01,2013-09-10 19:40:00,
2013-09-10 14:44:00,94.3,65.6,29.80,North,360,16.0,27.0,39,0.00,,CLR,0.00,VWS V14.01,2013-09-10 19:44:00,
2013-09-10 14:45:00,94.3,65.6,29.80,WSW,238,14.0,27.0,39,0.00,,CLR,0.00,VWS V14.01,2013-09-10 19:45:00,
2013-09-10 14:49:00,94.3,64.8,29.80,SW,226,18.0,27.0,38,0.00,,CLR,0.00,VWS V14.01,2013-09-10 19:49:00,
2013-09-10 14:50:00,94.3,64.8,29.80,North,360,4.0,27.0,38,0.00,,CLR,0.00,VWS V14.01,2013-09-10 19:50:00,
2013-09-10 14:54:00,94.3,64.8,29.80,SW,232,16.0,23.0,38,0.00,,CLR,0.00,VWS V14.01,2013-09-10 19:54:00,
2013-09-10 14:55:00,94.3,64.8,29.80,SW,223,12.0,23.0,38,0.00,,CLR,0.00,VWS V14.01,2013-09-10 19:55:00,
2013-09-10 14:59:00,94.4,65.7,29.80,North,360,4.0,20.0,39,0.00,,CLR,0.00,VWS V14.01,2013-09-10 19:59:00,
2013-09-10 15:00:00,94.4,65.7,29.80,North,360,11.0,21.0,39,0.00,,CLR,0.00,VWS V14.01,2013-09-10 20:00:00,
2013-09-10 15:04:00,94.6,65.1,29.80,WSW,252,8.0,20.0,38,0.00,,CLR,0.00,VWS V14.01,2013-09-10 20:04:00,
2013-09-10 15:05:00,94.6,65.1,29.80,WSW,243,2.0,20.0,38,0.00,,CLR,0.00,VWS V14.01,2013-09-10 20:05:00,
2013-09-10 15:09:00,94.8,65.3,29.80,North,360,13.0,20.0,38,0.00,,CLR,0.00,VWS V14.01,2013-09-10 20:09:00,
2013-09-10 15:10:00,94.8,66.0,29.80,South,177,8.0,18.0,39,0.00,,CLR,0.00,VWS V14.01,2013-09-10 20:10:00,
2013-09-10 15:15:00,94.3,64.8,29.80,North,360,7.0,22.0,38,0.00,,CLR,0.00,VWS V14.01,2013-09-10 20:15:00,
2013-09-10 15:20:00,94.5,65.7,29.79,SW,227,19.0,19.0,39,0.00,,CLR,0.00,VWS V14.01,2013-09-10 20:20:00,
2013-09-10 15:25:00,94.7,65.2,29.79,SSW,209,5.0,17.0,38,0.00,,CLR,0.00,VWS V14.01,2013-09-10 20:25:00,
2013-09-10 15:30:00,94.7,64.4,29.79,North,360,13.0,23.0,37,0.00,,CLR,0.00,VWS V14.01,2013-09-10 20:30:00,
2013-09-10 15:35:00,94.4,63.4,29.79,North,360,11.0,25.0,36,0.00,,CLR,0.00,VWS V14.01,2013-09-10 20:35:00,
2013-09-10 15:40:00,94.2,64.0,29.79,SSW,194,7.0,27.0,37,0.00,,CLR,0.00,VWS V14.01,2013-09-10 20:40:00,
2013-09-10 15:45:00,94.4,64.1,29.79,North,360,8.0,18.0,37,0.00,,CLR,0.00,VWS V14.01,2013-09-10 20:45:00,
2013-09-10 15:50:00,94.4,64.1,29.79,WSW,252,9.0,22.0,37,0.00,,CLR,0.00,VWS V14.01,2013-09-10 20:50:00,
2013-09-10 15:55:00,94.5,65.0,29.79,North,360,12.0,17.0,38,0.00,,CLR,0.00,VWS V14.01,2013-09-10 20:55:00,
2013-09-10 16:00:00,94.6,65.1,29.80,SW,230,13.0,20.0,38,0.00,,CLR,0.00,VWS V14.01,2013-09-10 21:00:00,
2013-09-10 16:05:00,94.3,65.6,29.79,North,360,8.0,21.0,39,0.00,,CLR,0.00,VWS V14.01,2013-09-10 21:05:00,
2013-09-10 16:10:00,94.4,64.1,29.79,WSW,248,9.0,23.0,37,0.00,,CLR,0.00,VWS V14.01,2013-09-10 21:10:00,
2013-09-10 16:15:00,94.0,63.8,29.79,WSW,237,9.0,28.0,37,0.00,,CLR,0.00,VWS V14.01,2013-09-10 21:15:00,
2013-09-10 16:20:00,94.2,64.7,29.79,WSW,238,11.0,14.0,38,0.00,,CLR,0.00,VWS V14.01,2013-09-10 21:20:00,
2013-09-10 16:25:00,94.2,65.5,29.79,North,360,7.0,17.0,39,0.00,,CLR,0.00,VWS V14.01,2013-09-10 21:25:00,
2013-09-10 16:30:00,94.2,65.5,29.79,North,360,17.0,17.0,39,0.00,,CLR,0.00,VWS V14.01,2013-09-10 21:30:00,
2013-09-10 16:35:00,94.0,65.3,29.79,WSW,241,7.0,19.0,39,0.00,,CLR,0.00,VWS V14.01,2013-09-10 21:35:00,
2013-09-10 16:40:00,94.0,65.3,29.79,North,360,8.0,19.0,39,0.00,,CLR,0.00,VWS V14.01,2013-09-10 21:40:00,
2013-09-10 16:41:00,94.0,64.6,29.79,West,277,11.0,21.0,38,0.00,,CLR,0.00,VWS V14.01,2013-09-10 21:41:00,
2013-09-10 16:45:00,93.8,65.1,29.79,WSW,240,9.0,22.0,39,0.00,,CLR,0.00,VWS V14.01,2013-09-10 21:45:00,
2013-09-10 16:46:00,93.8,65.1,29.79,North,360,10.0,16.0,39,0.00,,CLR,0.00,VWS V14.01,2013-09-10 21:46:00,
2013-09-10 16:50:00,93.9,65.9,29.79,North,360,21.0,22.0,40,0.00,,CLR,0.00,VWS V14.01,2013-09-10 21:50:00,
2013-09-10 16:51:00,93.7,65.0,29.79,North,360,8.0,22.0,39,0.00,,CLR,0.00,VWS V14.01,2013-09-10 21:51:00,
2013-09-10 16:55:00,93.5,65.6,29.79,North,360,11.0,23.0,40,0.00,,CLR,0.00,VWS V14.01,2013-09-10 21:55:00,
2013-09-10 16:56:00,93.5,65.6,29.79,North,360,9.0,17.0,40,0.00,,CLR,0.00,VWS V14.01,2013-09-10 21:56:00,
2013-09-10 17:00:00,93.6,65.7,29.79,North,360,6.0,14.0,40,0.00,,CLR,0.00,VWS V14.01,2013-09-10 22:00:00,
2013-09-10 17:01:00,93.6,65.7,29.79,SSW,206,7.0,14.0,40,0.00,,CLR,0.00,VWS V14.01,2013-09-10 22:01:00,
2013-09-10 17:05:00,93.6,65.7,29.78,North,360,7.0,15.0,40,0.00,,CLR,0.00,VWS V14.01,2013-09-10 22:05:00,
2013-09-10 17:06:00,93.6,65.7,29.78,North,360,17.0,18.0,40,0.00,,CLR,0.00,VWS V14.01,2013-09-10 22:06:00,
2013-09-10 17:10:00,93.4,65.5,29.78,SW,224,10.0,18.0,40,0.00,,CLR,0.00,VWS V14.01,2013-09-10 22:10:00,
2013-09-10 17:11:00,93.4,65.5,29.79,North,360,15.0,18.0,40,0.00,,CLR,0.00,VWS V14.01,2013-09-10 22:11:00,
2013-09-10 17:15:00,93.3,65.4,29.78,South,174,9.0,19.0,40,0.00,,CLR,0.00,VWS V14.01,2013-09-10 22:15:00,
2013-09-10 17:16:00,93.3,65.4,29.78,SW,235,4.0,19.0,40,0.00,,CLR,0.00,VWS V14.01,2013-09-10 22:16:00,
2013-09-10 17:20:00,93.4,65.5,29.79,North,360,7.0,14.0,40,0.00,,CLR,0.00,VWS V14.01,2013-09-10 22:20:00,
2013-09-10 17:21:00,93.4,65.5,29.78,WSW,242,0.0,14.0,40,0.00,,CLR,0.00,VWS V14.01,2013-09-10 22:21:00,
2013-09-10 17:25:00,93.4,65.5,29.78,West,272,6.0,18.0,40,0.00,,CLR,0.00,VWS V14.01,2013-09-10 22:25:00,
2013-09-10 17:26:00,93.3,65.4,29.79,North,360,0.0,18.0,40,0.00,,CLR,0.00,VWS V14.01,2013-09-10 22:26:00,
2013-09-10 17:30:00,93.2,65.3,29.78,North,360,6.0,16.0,40,0.00,,CLR,0.00,VWS V14.01,2013-09-10 22:30:00,
2013-09-10 17:31:00,93.1,65.2,29.78,North,360,5.0,18.0,40,0.00,,CLR,0.00,VWS V14.01,2013-09-10 22:31:00,
2013-09-10 17:35:00,93.0,65.1,29.79,North,360,14.0,18.0,40,0.00,,CLR,0.00,VWS V14.01,2013-09-10 22:35:00,
2013-09-10 17:36:00,92.9,65.0,29.79,WSW,242,9.0,15.0,40,0.00,,CLR,0.00,VWS V14.01,2013-09-10 22:36:00,
2013-09-10 17:40:00,92.9,65.0,29.79,WSW,237,8.0,15.0,40,0.00,,CLR,0.00,VWS V14.01,2013-09-10 22:40:00,
2013-09-10 17:41:00,92.8,64.9,29.79,SSW,205,3.0,12.0,40,0.00,,CLR,0.00,VWS V14.01,2013-09-10 22:41:00,
2013-09-10 17:45:00,92.8,64.9,29.79,SSW,192,9.0,17.0,40,0.00,,CLR,0.00,VWS V14.01,2013-09-10 22:45:00,
2013-09-10 17:46:00,92.7,64.9,29.79,North,360,10.0,17.0,40,0.00,,CLR,0.00,VWS V14.01,2013-09-10 22:46:00,
2013-09-10 17:50:00,92.6,64.8,29.79,South,188,4.0,16.0,40,0.00,,CLR,0.00,VWS V14.01,2013-09-10 22:50:00,
2013-09-10 17:51:00,92.6,64.8,29.79,North,360,10.0,16.0,40,0.00,,CLR,0.00,VWS V14.01,2013-09-10 22:51:00,
2013-09-10 17:55:00,92.6,65.5,29.79,North,360,10.0,12.0,41,0.00,,CLR,0.00,VWS V14.01,2013-09-10 22:55:00,
2013-09-10 17:56:00,92.4,65.3,29.79,North,360,0.0,13.0,41,0.00,,CLR,0.00,VWS V14.01,2013-09-10 22:56:00,
2013-09-10 18:00:00,92.4,65.3,29.79,North,360,2.0,12.0,41,0.00,,CLR,0.00,VWS V14.01,2013-09-10 23:00:00,
2013-09-10 18:02:00,92.2,65.1,29.79,North,360,4.0,12.0,41,0.00,,CLR,0.00,VWS V14.01,2013-09-10 23:02:00,
2013-09-10 18:05:00,92.1,65.7,29.79,North,360,7.0,12.0,42,0.00,,CLR,0.00,VWS V14.01,2013-09-10 23:05:00,
2013-09-10 18:07:00,92.0,65.6,29.79,SW,227,5.0,11.0,42,0.00,,CLR,0.00,VWS V14.01,2013-09-10 23:07:00,
2013-09-10 18:10:00,91.9,65.6,29.79,North,360,7.0,11.0,42,0.00,,CLR,0.00,VWS V14.01,2013-09-10 23:10:00,
2013-09-10 18:12:00,91.8,65.5,29.79,SSE,165,3.0,12.0,42,0.00,,CLR,0.00,VWS V14.01,2013-09-10 23:12:00,
2013-09-10 18:15:00,91.6,65.3,29.79,SSW,195,3.0,12.0,42,0.00,,CLR,0.00,VWS V14.01,2013-09-10 23:15:00,
2013-09-10 18:17:00,91.4,65.1,29.79,North,360,7.0,15.0,42,0.00,,CLR,0.00,VWS V14.01,2013-09-10 23:17:00,
2013-09-10 18:20:00,91.3,65.7,29.79,North,360,8.0,15.0,43,0.00,,CLR,0.00,VWS V14.01,2013-09-10 23:20:00,
2013-09-10 18:22:00,91.1,65.5,29.79,North,360,1.0,15.0,43,0.00,,CLR,0.00,VWS V14.01,2013-09-10 23:22:00,
2013-09-10 18:25:00,91.1,65.5,29.79,North,360,3.0,15.0,43,0.00,,CLR,0.00,VWS V14.01,2013-09-10 23:25:00,
2013-09-10 18:27:00,91.0,64.7,29.79,North,360,5.0,12.0,42,0.00,,CLR,0.00,VWS V14.01,2013-09-10 23:27:00,
2013-09-10 18:30:00,90.9,65.3,29.79,North,360,13.0,13.0,43,0.00,,CLR,0.00,VWS V14.01,2013-09-10 23:30:00,
2013-09-10 18:32:00,90.7,64.5,29.80,WNW,292,4.0,14.0,42,0.00,,CLR,0.00,VWS V14.01,2013-09-10 23:32:00,
2013-09-10 18:35:00,90.6,65.1,29.80,North,360,0.0,14.0,43,0.00,,CLR,0.00,VWS V14.01,2013-09-10 23:35:00,
2013-09-10 18:37:00,90.4,64.9,29.80,North,360,4.0,14.0,43,0.00,,CLR,0.00,VWS V14.01,2013-09-10 23:37:00,
2013-09-10 18:40:00,90.3,64.8,29.80,North,360,7.0,14.0,43,0.00,,CLR,0.00,VWS V14.01,2013-09-10 23:40:00,
2013-09-10 18:42:00,90.1,64.6,29.80,North,360,8.0,12.0,43,0.00,,CLR,0.00,VWS V14.01,2013-09-10 23:42:00,
2013-09-10 18:45:00,90.0,64.5,29.80,North,360,10.0,12.0,43,0.00,,CLR,0.00,VWS V14.01,2013-09-10 23:45:00,
2013-09-10 18:47:00,89.9,64.4,29.80,SSW,202,0.0,11.0,43,0.00,,CLR,0.00,VWS V14.01,2013-09-10 23:47:00,
2013-09-10 18:50:00,89.7,64.2,29.80,SW,214,0.0,9.0,43,0.00,,CLR,0.00,VWS V14.01,2013-09-10 23:50:00,
2013-09-10 18:52:00,89.5,64.7,29.80,South,186,0.0,11.0,44,0.00,,CLR,0.00,VWS V14.01,2013-09-10 23:52:00,
2013-09-10 18:55:00,89.4,64.6,29.80,North,360,4.0,8.0,44,0.00,,CLR,0.00,VWS V14.01,2013-09-10 23:55:00,
2013-09-10 18:57:00,89.2,64.5,29.80,North,360,5.0,10.0,44,0.00,,CLR,0.00,VWS V14.01,2013-09-10 23:57:00,
2013-09-10 19:00:00,89.1,64.4,29.80,North,360,6.0,10.0,44,0.00,,CLR,0.00,VWS V14.01,2013-09-11 00:00:00,
2013-09-10 19:02:00,88.9,64.2,29.80,North,360,4.0,9.0,44,0.00,,CLR,0.00,VWS V14.01,2013-09-11 00:02:00,
2013-09-10 19:05:00,88.9,64.2,29.80,North,360,3.0,8.0,44,0.00,,CLR,0.00,VWS V14.01,2013-09-11 00:05:00,
2013-09-10 19:08:00,88.6,63.9,29.80,North,360,8.0,10.0,44,0.00,,CLR,0.00,VWS V14.01,2013-09-11 00:08:00,
2013-09-10 19:10:00,88.6,63.9,29.80,SW,221,6.0,10.0,44,0.00,,CLR,0.00,VWS V14.01,2013-09-11 00:10:00,
2013-09-10 19:13:00,88.4,64.4,29.80,North,360,1.0,8.0,45,0.00,,CLR,0.00,VWS V14.01,2013-09-11 00:13:00,
2013-09-10 19:15:00,88.4,64.4,29.80,South,178,0.0,8.0,45,0.00,,CLR,0.00,VWS V14.01,2013-09-11 00:15:00,
2013-09-10 19:18:00,88.2,64.2,29.81,SW,214,0.0,9.0,45,0.00,,CLR,0.00,VWS V14.01,2013-09-11 00:18:00,
2013-09-10 19:20:00,88.1,64.1,29.81,North,360,0.0,9.0,45,0.00,,CLR,0.00,VWS V14.01,2013-09-11 00:20:00,
2013-09-10 19:23:00,87.9,63.9,29.81,SSW,211,0.0,10.0,45,0.00,,CLR,0.00,VWS V14.01,2013-09-11 00:23:00,
2013-09-10 19:25:00,87.9,63.9,29.81,North,360,2.0,10.0,45,0.00,,CLR,0.00,VWS V14.01,2013-09-11 00:25:00,
2013-09-10 19:28:00,87.7,63.8,29.81,SSW,192,0.0,8.0,45,0.00,,CLR,0.00,VWS V14.01,2013-09-11 00:28:00,
2013-09-10 19:30:00,87.7,63.7,29.81,SW,223,3.0,8.0,45,0.00,,CLR,0.00,VWS V14.01,2013-09-11 00:30:00,
2013-09-10 19:33:00,87.4,64.1,29.81,SW,221,0.0,9.0,46,0.00,,CLR,0.00,VWS V14.01,2013-09-11 00:33:00,
2013-09-10 19:35:00,87.3,64.0,29.81,North,360,0.0,9.0,46,0.00,,CLR,0.00,VWS V14.01,2013-09-11 00:35:00,
2013-09-10 19:38:00,87.1,63.8,29.81,North,360,1.0,5.0,46,0.00,,CLR,0.00,VWS V14.01,2013-09-11 00:38:00,
2013-09-10 19:40:00,87.0,63.7,29.81,South,191,0.0,7.0,46,0.00,,CLR,0.00,VWS V14.01,2013-09-11 00:40:00,
2013-09-10 19:43:00,86.8,63.6,29.81,North,360,5.0,9.0,46,0.00,,CLR,0.00,VWS V14.01,2013-09-11 00:43:00,
2013-09-10 19:45:00,86.8,63.6,29.81,North,360,0.0,9.0,46,0.00,,CLR,0.00,VWS V14.01,2013-09-11 00:45:00,
2013-09-10 19:48:00,86.7,64.1,29.81,North,360,2.0,10.0,47,0.00,,CLR,0.00,VWS V14.01,2013-09-11 00:48:00,
2013-09-10 19:50:00,86.6,63.4,29.81,South,188,0.0,10.0,46,0.00,,CLR,0.00,VWS V14.01,2013-09-11 00:50:00,
2013-09-10 19:53:00,86.5,63.9,29.82,SSW,203,5.0,10.0,47,0.00,,CLR,0.00,VWS V14.01,2013-09-11 00:53:00,
2013-09-10 19:55:00,86.4,63.8,29.82,North,360,0.0,9.0,47,0.00,,CLR,0.00,VWS V14.01,2013-09-11 00:55:00,
2013-09-10 19:58:00,86.2,63.6,29.82,North,360,7.0,9.0,47,0.00,,CLR,0.00,VWS V14.01,2013-09-11 00:58:00,
2013-09-10 20:00:00,86.2,63.6,29.82,North,360,10.0,10.0,47,0.00,,CLR,0.00,VWS V14.01,2013-09-11 01:00:00,
2013-09-10 20:03:00,85.9,64.0,29.82,North,360,5.0,10.0,48,0.00,,FEW080,0.00,VWS V14.01,2013-09-11 01:03:00,
2013-09-10 20:05:00,85.9,64.0,29.82,North,360,7.0,10.0,48,0.00,,CLR,0.00,VWS V14.01,2013-09-11 01:05:00,
2013-09-10 20:08:00,85.7,63.8,29.82,SSE,158,6.0,9.0,48,0.00,,FEW080,0.00,VWS V14.01,2013-09-11 01:08:00,
2013-09-10 20:10:00,85.7,63.8,29.82,SW,218,2.0,9.0,48,0.00,,CLR,0.00,VWS V14.01,2013-09-11 01:10:00,
2013-09-10 20:13:00,85.5,64.2,29.82,North,360,8.0,8.0,49,0.00,,FEW080,0.00,VWS V14.01,2013-09-11 01:13:00,
2013-09-10 20:15:00,85.5,64.2,29.82,SSW,202,10.0,10.0,49,0.00,,CLR,0.00,VWS V14.01,2013-09-11 01:15:00,
2013-09-10 20:18:00,85.4,64.1,29.83,North,360,6.0,10.0,49,0.00,,FEW080,0.00,VWS V14.01,2013-09-11 01:18:00,
2013-09-10 20:20:00,85.4,64.1,29.83,North,360,5.0,10.0,49,0.00,,CLR,0.00,VWS V14.01,2013-09-11 01:20:00,
2013-09-10 20:24:00,85.3,64.6,29.83,SSW,211,3.0,11.0,50,0.00,,FEW080,0.00,VWS V14.01,2013-09-11 01:24:00,
2013-09-10 20:25:00,85.3,64.6,29.83,SSW,205,6.0,11.0,50,0.00,,CLR,0.00,VWS V14.01,2013-09-11 01:25:00,
2013-09-10 20:29:00,85.3,64.6,29.83,SSW,193,5.0,8.0,50,0.00,,FEW080,0.00,VWS V14.01,2013-09-11 01:29:00,
2013-09-10 20:30:00,85.3,64.6,29.83,SSW,208,5.0,8.0,50,0.00,,CLR,0.00,VWS V14.01,2013-09-11 01:30:00,
2013-09-10 20:34:00,85.1,64.4,29.83,North,360,4.0,9.0,50,0.00,,FEW080,0.00,VWS V14.01,2013-09-11 01:34:00,
2013-09-10 20:35:00,85.1,64.4,29.83,North,360,7.0,9.0,50,0.00,,CLR,0.00,VWS V14.01,2013-09-11 01:35:00,
2013-09-10 20:39:00,85.0,64.3,29.83,North,360,8.0,10.0,50,0.00,,FEW080,0.00,VWS V14.01,2013-09-11 01:39:00,
2013-09-10 20:40:00,85.0,64.3,29.83,North,360,6.0,10.0,50,0.00,,CLR,0.00,VWS V14.01,2013-09-11 01:40:00,
2013-09-10 20:44:00,85.0,64.3,29.83,North,360,5.0,12.0,50,0.00,,FEW080,0.00,VWS V14.01,2013-09-11 01:44:00,
2013-09-10 20:45:00,85.0,64.3,29.83,North,360,5.0,12.0,50,0.00,,CLR,0.00,VWS V14.01,2013-09-11 01:45:00,
2013-09-10 20:49:00,85.0,64.3,29.83,North,360,5.0,11.0,50,0.00,,FEW080,0.00,VWS V14.01,2013-09-11 01:49:00,
2013-09-10 20:50:00,85.0,64.3,29.83,North,360,5.0,11.0,50,0.00,,CLR,0.00,VWS V14.01,2013-09-11 01:50:00,
2013-09-10 20:54:00,85.1,64.4,29.83,North,360,7.0,16.0,50,0.00,,FEW080,0.00,VWS V14.01,2013-09-11 01:54:00,
2013-09-10 20:55:00,85.1,64.4,29.83,North,360,7.0,16.0,50,0.00,,CLR,0.00,VWS V14.01,2013-09-11 01:55:00,
2013-09-10 20:59:00,85.1,63.8,29.83,North,360,5.0,12.0,49,0.00,,FEW080,0.00,VWS V14.01,2013-09-11 01:59:00,
2013-09-10 21:00:00,85.1,63.8,29.83,North,360,5.0,12.0,49,0.00,,CLR,0.00,VWS V14.01,2013-09-11 02:00:00,
2013-09-10 21:04:00,84.9,64.2,29.83,SSW,194,7.0,12.0,50,0.00,,CLR,0.00,VWS V14.01,2013-09-11 02:04:00,
2013-09-10 21:05:00,84.9,64.2,29.83,SSW,194,7.0,12.0,50,0.00,,CLR,0.00,VWS V14.01,2013-09-11 02:05:00,
2013-09-10 21:09:00,84.8,64.1,29.83,South,178,7.0,13.0,50,0.00,,CLR,0.00,VWS V14.01,2013-09-11 02:09:00,
2013-09-10 21:10:00,84.8,64.1,29.83,South,178,7.0,13.0,50,0.00,,CLR,0.00,VWS V14.01,2013-09-11 02:10:00,
2013-09-10 21:14:00,84.7,64.0,29.83,North,360,6.0,13.0,50,0.00,,CLR,0.00,VWS V14.01,2013-09-11 02:14:00,
2013-09-10 21:15:00,84.7,64.0,29.83,North,360,6.0,13.0,50,0.00,,CLR,0.00,VWS V14.01,2013-09-11 02:15:00,
2013-09-10 21:19:00,84.5,63.8,29.83,SSW,210,5.0,13.0,50,0.00,,CLR,0.00,VWS V14.01,2013-09-11 02:19:00,
2013-09-10 21:20:00,84.5,63.8,29.83,SSW,210,5.0,13.0,50,0.00,,CLR,0.00,VWS V14.01,2013-09-11 02:20:00,
2013-09-10 21:24:00,84.4,63.8,29.83,North,360,3.0,12.0,50,0.00,,CLR,0.00,VWS V14.01,2013-09-11 02:24:00,
2013-09-10 21:25:00,84.4,63.8,29.83,North,360,3.0,12.0,50,0.00,,CLR,0.00,VWS V14.01,2013-09-11 02:25:00,
2013-09-10 21:29:00,84.2,63.6,29.83,North,360,9.0,14.0,50,0.00,,CLR,0.00,VWS V14.01,2013-09-11 02:29:00,
2013-09-10 21:30:00,84.2,63.6,29.83,North,360,9.0,14.0,50,0.00,,CLR,0.00,VWS V14.01,2013-09-11 02:30:00,
2013-09-10 21:34:00,84.2,63.6,29.83,North,360,6.0,13.0,50,0.00,,CLR,0.00,VWS V14.01,2013-09-11 02:34:00,
2013-09-10 21:35:00,84.2,63.6,29.83,North,360,6.0,13.0,50,0.00,,CLR,0.00,VWS V14.01,2013-09-11 02:35:00,
2013-09-10 21:39:00,84.1,64.0,29.82,North,360,4.0,10.0,51,0.00,,CLR,0.00,VWS V14.01,2013-09-11 02:39:00,
2013-09-10 21:40:00,84.1,64.0,29.82,North,360,4.0,10.0,51,0.00,,CLR,0.00,VWS V14.01,2013-09-11 02:40:00,
2013-09-10 21:44:00,83.9,63.8,29.82,North,360,7.0,13.0,51,0.00,,CLR,0.00,VWS V14.01,2013-09-11 02:44:00,
2013-09-10 21:45:00,83.9,63.8,29.82,North,360,7.0,13.0,51,0.00,,CLR,0.00,VWS V14.01,2013-09-11 02:45:00,
2013-09-10 21:49:00,83.7,64.2,29.82,North,360,14.0,14.0,52,0.00,,CLR,0.00,VWS V14.01,2013-09-11 02:49:00,
2013-09-10 21:50:00,83.7,64.2,29.82,North,360,14.0,14.0,52,0.00,,CLR,0.00,VWS V14.01,2013-09-11 02:50:00,
2013-09-10 21:54:00,83.6,64.7,29.82,North,360,0.0,16.0,53,0.00,,CLR,0.00,VWS V14.01,2013-09-11 02:54:00,
2013-09-10 21:55:00,83.6,64.7,29.82,North,360,0.0,16.0,53,0.00,,CLR,0.00,VWS V14.01,2013-09-11 02:55:00,
2013-09-10 21:59:00,83.4,64.5,29.82,North,360,3.0,11.0,53,0.00,,CLR,0.00,VWS V14.01,2013-09-11 02:59:00,
2013-09-10 22:00:00,83.4,64.5,29.82,North,360,3.0,11.0,53,0.00,,CLR,0.00,VWS V14.01,2013-09-11 03:00:00,
2013-09-10 22:05:00,83.2,64.8,29.82,North,360,2.0,11.0,54,0.00,,CLR,0.00,VWS V14.01,2013-09-11 03:05:00,
2013-09-10 22:10:00,83.0,65.2,29.82,North,360,10.0,11.0,55,0.00,,CLR,0.00,VWS V14.01,2013-09-11 03:10:00,
2013-09-10 22:15:00,83.0,65.2,29.82,North,360,4.0,11.0,55,0.00,,CLR,0.00,VWS V14.01,2013-09-11 03:15:00,
2013-09-10 22:20:00,83.0,65.7,29.82,North,360,6.0,13.0,56,0.00,,CLR,0.00,VWS V14.01,2013-09-11 03:20:00,
2013-09-10 22:25:00,83.0,65.7,29.82,North,360,3.0,15.0,56,0.00,,CLR,0.00,VWS V14.01,2013-09-11 03:25:00,
2013-09-10 22:30:00,83.0,65.7,29.82,SW,216,1.0,14.0,56,0.00,,CLR,0.00,VWS V14.01,2013-09-11 03:30:00,
2013-09-10 22:35:00,83.1,65.8,29.82,North,360,15.0,16.0,56,0.00,,CLR,0.00,VWS V14.01,2013-09-11 03:35:00,
2013-09-10 22:40:00,83.2,65.9,29.82,North,360,2.0,15.0,56,0.00,,CLR,0.00,VWS V14.01,2013-09-11 03:40:00,
2013-09-10 22:45:00,83.1,65.8,29.81,North,360,4.0,14.0,56,0.00,,CLR,0.00,VWS V14.01,2013-09-11 03:45:00,
2013-09-10 22:50:00,83.1,65.8,29.81,North,360,4.0,18.0,56,0.00,,CLR,0.00,VWS V14.01,2013-09-11 03:50:00,
2013-09-10 22:51:00,83.1,65.8,29.81,SSW,195,6.0,13.0,56,0.00,,CLR,0.00,VWS V14.01,2013-09-11 03:51:00,
2013-09-10 22:55:00,83.1,65.8,29.81,North,360,8.0,14.0,56,0.00,,CLR,0.00,VWS V14.01,2013-09-11 03:55:00,
2013-09-10 22:56:00,83.0,66.2,29.81,North,360,10.0,15.0,57,0.00,,CLR,0.00,VWS V14.01,2013-09-11 03:56:00,
2013-09-10 23:00:00,83.2,66.4,29.81,SW,215,4.0,18.0,57,0.00,,CLR,0.00,VWS V14.01,2013-09-11 04:00:00,
2013-09-10 23:01:00,83.2,66.4,29.81,SSW,207,9.0,18.0,57,0.00,,CLR,0.00,VWS V14.01,2013-09-11 04:01:00,
2013-09-10 23:03:00,83.2,66.4,29.81,North,360,2.0,20.0,57,0.00,,CLR,0.00,VWS V14.01,2013-09-11 04:03:00,
2013-09-10 23:05:00,83.3,66.5,29.81,North,360,8.0,20.0,57,0.00,,CLR,0.00,VWS V14.01,2013-09-11 04:05:00,
2013-09-10 23:08:00,83.2,66.4,29.81,SW,227,7.0,16.0,57,0.00,,CLR,0.00,VWS V14.01,2013-09-11 04:08:00,
2013-09-10 23:09:00,83.3,66.5,29.81,North,360,4.0,16.0,57,0.00,,CLR,0.00,VWS V14.01,2013-09-11 04:09:00,
2013-09-10 23:10:00,83.3,66.5,29.81,North,360,9.0,16.0,57,0.00,,CLR,0.00,VWS V14.01,2013-09-11 04:10:00,
2013-09-10 23:15:00,83.3,66.5,29.81,SW,225,6.0,20.0,57,0.00,,CLR,0.00,VWS V14.01,2013-09-11 04:15:00,
2013-09-10 23:20:00,83.4,66.6,29.81,North,360,6.0,17.0,57,0.00,,CLR,0.00,VWS V14.01,2013-09-11 04:20:00,
2013-09-10 23:25:00,83.4,67.1,29.81,North,360,7.0,17.0,58,0.00,,CLR,0.00,VWS V14.01,2013-09-11 04:25:00,
2013-09-10 23:30:00,83.3,67.0,29.81,North,360,8.0,15.0,58,0.00,,CLR,0.00,VWS V14.01,2013-09-11 04:30:00,
2013-09-10 23:35:00,83.2,66.9,29.82,North,360,0.0,15.0,58,0.00,,CLR,0.00,VWS V14.01,2013-09-11 04:35:00,
2013-09-10 23:40:00,82.9,67.1,29.81,WSW,249,2.0,12.0,59,0.00,,CLR,0.00,VWS V14.01,2013-09-11 04:40:00,
2013-09-10 23:45:00,82.7,67.4,29.81,SSW,207,0.0,13.0,60,0.00,,CLR,0.00,VWS V14.01,2013-09-11 04:45:00,
2013-09-10 23:50:00,82.5,67.2,29.82,SW,222,0.0,11.0,60,0.00,,CLR,0.00,VWS V14.01,2013-09-11 04:50:00,
2013-09-10 23:55:00,82.3,67.5,29.82,SW,232,8.0,12.0,61,0.00,,CLR,0.00,VWS V14.01,2013-09-11 04:55:00,